Tiempo Historia de Sisseton, SD

Change the Weather History Date:

Martes, Marzo 20, 2012

  Actual Average Record
Temperature  
Temperatura media 49 ° F 32 ° F  
Temperatura máxima 60 ° F 41 ° F 65 ° F (1934)
Temperatura mínima 38 ° F 22 ° F -5 ° F (1986)
Degree Days  
Grados día de calefacción 16 33  
Month to date heating degree days 512 749  
Since 1 July heating degree days 5769 7008  
Cooling Degree Days 0 0  
Month to date cooling degree days 7 0  
Year to date cooling degree days 7 0  
Moisture  
Punto de rocío 34 ° F    
Average Humidity 57    
Maximum Humidity 83    
Minimum Humidity 30    
Precipitación  
Precipitación 0.00 pul 0.03 pul 1.09 pul (1982)
Month to date precipitation 0.28 0.68  
Year to date precipitation 2.07 1.54  
Nieve  
Nieve 0.00 pul - - ()
Month to date snowfall 2.1  
Since 1 July snowfall 20.9  
Grosos de nieve 0.00 pul    
Presión al nivel del mar  
Presión al nivel del mar 29.81 pul    
Viento  
Velocidad del viento 10 mph (NNO)    
Velocidad máxima del viento 22 mph    
Max Gust Speed 26 mph    
T = Trace of Precipitation, MM = Missing Value Source: NWS Daily Summary

Daily Weather History Graph

Daily Weather History Graph

Search for Another Location

Airport:

Trip Planner

Search our weather history database for the weather conditions in past years. The results will help you decide how hot, cold, wet, or windy it might be!

Date:

Astronomía

Mar. 20, 2012 Salida Puesta
Hora real 7:30 AM CDT 7:41 PM CDT
Crepúsculo civil 7:00 AM CDT 8:10 PM CDT
Crepúsculo náutico 6:25 AM CDT 8:45 PM CDT
Crepúsculo astronómico 5:49 AM CDT 9:21 PM CDT
Luna 6:16 AM CDT (3/20) 6:08 PM CDT (3/20)
Horas de luz 13h 10m
Horas de luz
12h 11m
Creciente menguante, 4% of the Moon is Illuminated
Mar 20
Creciente menguante
Mar 22
Nueva
Mar 30
Cuarto creciente
Abr 6
Luna llena
Abr 13
Cuarto menguante

Hourly Weather History & Observations

Hora (CDT) Temp. Vientos helados Punto de rocío Humedad Presión Visibilidad Wind Dir Velocidad del viento Velocidad de ráfagas Precip Eventos Condiciones
12:56 AM 57.9 ° F - 51.1 ° F 78% 29.55 pul - SSO 11.5 mph - N/A   Desconocido
1:56 AM 57.0 ° F - 50.0 ° F 77% 29.56 pul - SSO 11.5 mph - N/A   Desconocido
2:56 AM 57.0 ° F - 50.0 ° F 77% 29.58 pul - SO 11.5 mph - N/A   Desconocido
3:56 AM 55.9 ° F - 50.0 ° F 80% 29.61 pul - OSO 11.5 mph - N/A   Desconocido
4:27 AM 53.6 ° F - 39.2 ° F 58% 29.66 pul - NNO 16.1 mph - N/A   Desconocido
4:56 AM 50.0 ° F - 37.0 ° F 61% 29.66 pul - NNO 17.3 mph - N/A   Desconocido
5:56 AM 46.9 ° F - 34.0 ° F 61% 29.70 pul - Norte 11.5 mph - N/A   Desconocido
6:56 AM 46.0 ° F 40.2 ° F 34.0 ° F 63% 29.75 pul - NNO 12.7 mph - N/A   Desconocido
7:56 AM 45.0 ° F 38.9 ° F 32.0 ° F 60% 29.78 pul - Norte 12.7 mph - N/A   Desconocido
8:56 AM 44.1 ° F 37.4 ° F 32.0 ° F 63% 29.83 pul - NNO 13.8 mph - N/A   Desconocido
9:56 AM 46.0 ° F 39.9 ° F 30.9 ° F 56% 29.87 pul - Norte 13.8 mph - N/A   Desconocido
10:56 AM 48.0 ° F - 30.0 ° F 50% 29.90 pul - Norte 15.0 mph - N/A   Desconocido
11:56 AM 50.0 ° F - 30.0 ° F 46% 29.91 pul - NNO 13.8 mph - N/A   Desconocido
12:56 PM 54.0 ° F - 28.9 ° F 38% 29.90 pul - Norte 12.7 mph 18.4 mph N/A   Desconocido
1:56 PM 55.9 ° F - 28.0 ° F 34% 29.89 pul - NNO 11.5 mph - N/A   Desconocido
2:56 PM 57.0 ° F - 27.0 ° F 32% 29.88 pul - Norte 11.5 mph - N/A   Desconocido
3:56 PM 57.9 ° F - 27.0 ° F 31% 29.87 pul - NNE 9.2 mph 17.3 mph N/A   Desconocido
4:56 PM 57.0 ° F - 27.0 ° F 32% 29.88 pul - NNE 10.4 mph - N/A   Desconocido
5:56 PM 57.9 ° F - 27.0 ° F 31% 29.89 pul - NE 9.2 mph - N/A   Desconocido
6:56 PM 55.0 ° F - 28.9 ° F 37% 29.92 pul - Este 10.4 mph - N/A   Desconocido
7:56 PM 48.9 ° F - 28.9 ° F 46% 29.94 pul - ENE 4.6 mph - N/A   Desconocido
8:56 PM 44.1 ° F 39.5 ° F 30.0 ° F 58% 29.95 pul - SE 8.1 mph - N/A   Desconocido
9:56 PM 42.1 ° F 40.2 ° F 33.1 ° F 70% 29.99 pul - SO 3.5 mph - N/A   Desconocido
10:56 PM 41.0 ° F 37.1 ° F 33.1 ° F 73% 29.96 pul - SSO 5.8 mph - N/A   Desconocido
11:56 PM 42.1 ° F 40.2 ° F 34.0 ° F 73% 29.94 pul - Oeste 3.5 mph - N/A   Desconocido